GEFSSGP_con_probscp_132.txt.gz
Probability
0 0 0 0 0 0 0 0 0 0 0 0 0 1 2 2 1 0 1 2 2 1 0 0 0 0 0 0 0 1 2 2 1 0 0 0 0 0 0 0 0 0 0 0 0 0 0 0 0
0 0 0 0 0 0 0 0 0 0 0 0 1 2 4 4 2 1 2 2 3 2 1 0 1 1 1 0 0 0 1 1 0 0 0 0 0 0 0 0 0 0 0 0 0 0 0 0 0
0 0 0 0 0 0 0 0 0 0 0 1 2 3 5 5 4 3 3 4 4 2 1 1 2 2 2 1 0 0 0 0 0 0 0 0 0 0 0 0 0 0 0 0 0 0 0 0 0
0 0 0 0 0 0 0 0 0 0 1 2 3 3 3 3 5 6 8 9 7 4 2 3 3 3 3 1 1 1 1 0 0 0 0 0 0 0 0 0 0 0 0 0 0 0 0 0 0
0 0 0 0 0 0 0 0 1 2 3 4 5 5 3 3 8 13 16 15 12 8 5 5 4 4 3 3 3 2 1 0 0 0 0 0 0 0 0 0 0 0 1 0 0 0 0 0 0
0 0 0 0 0 0 0 0 1 2 4 6 8 10 7 7 14 22 23 19 17 15 11 9 8 6 4 4 4 3 1 0 0 0 0 0 0 0 0 0 0 0 0 0 0 0 0 0 0
0 0 0 0 0 0 0 0 0 2 4 6 10 12 12 14 22 30 30 27 27 26 22 18 14 9 5 5 5 3 0 0 0 0 0 0 0 0 0 0 0 0 0 0 0 0 0 0 0
0 0 0 0 0 0 0 0 0 1 3 5 6 9 14 24 36 43 44 42 40 37 31 25 20 13 8 6 6 3 0 0 0 0 0 0 0 0 0 0 0 0 0 0 0 0 0 0 0
0 0 0 0 0 0 0 0 0 1 2 2 3 8 22 41 54 58 58 55 51 45 37 30 25 18 12 8 6 3 1 0 0 0 0 0 0 0 0 0 0 0 0 0 0 0 0 0 0
0 0 0 0 0 0 0 1 1 1 1 2 5 17 39 58 65 65 63 59 55 51 45 36 28 22 15 10 7 4 1 1 1 1 0 0 0 0 0 0 0 0 0 0 0 0 0 0 0
0 0 0 0 0 0 1 2 2 2 2 3 11 31 56 66 67 64 60 56 54 54 51 42 31 25 21 15 11 6 2 2 3 2 1 0 0 0 0 0 0 0 0 0 0 0 0 0 0
0 0 0 0 0 0 1 2 3 3 3 5 17 40 59 66 65 61 55 52 54 55 52 44 35 30 25 20 15 8 3 3 4 3 2 1 0 0 0 0 0 0 0 0 0 0 0 0 0
0 0 0 0 0 0 0 1 2 3 3 8 21 39 54 62 62 58 52 51 54 52 48 42 35 30 25 21 15 8 3 2 3 2 2 1 0 0 0 0 0 0 0 0 0 0 0 0 0
0 0 0 0 0 0 0 1 1 1 2 9 21 33 45 55 59 57 53 53 52 46 39 35 31 25 21 17 13 7 3 1 1 1 1 0 0 0 0 0 0 0 0 0 0 0 0 0 0
0 0 0 0 0 0 0 0 0 0 2 8 17 27 35 44 52 53 53 54 51 41 36 33 27 20 14 11 9 6 3 1 0 0 0 0 0 0 0 0 0 0 0 0 0 0 0 0 0
0 0 0 0 0 0 0 0 0 0 1 7 16 23 28 34 40 45 50 53 50 42 38 34 25 16 10 7 5 4 3 2 1 1 0 0 0 0 0 0 0 0 0 0 0 0 0 0 0
0 0 0 0 0 0 0 0 0 0 1 6 15 23 27 30 34 40 46 50 48 42 37 31 22 14 9 6 4 3 3 3 3 2 1 0 0 0 0 0 0 0 0 0 0 0 0 0 0
0 0 0 0 0 0 0 0 0 1 2 6 15 21 25 28 32 37 41 44 43 38 31 25 19 13 10 7 4 3 3 2 3 3 2 1 0 0 0 0 0 0 0 0 0 0 0 0 0
0 0 0 0 0 0 0 0 0 1 3 9 15 17 20 24 30 34 37 39 38 32 24 18 15 11 8 6 4 2 1 1 1 2 2 1 0 0 0 0 0 0 0 0 0 0 0 0 0
0 0 0 0 0 0 0 0 0 1 4 9 12 13 16 22 28 31 33 34 33 29 21 14 11 8 6 5 3 1 1 0 0 1 1 1 0 0 0 0 0 0 0 0 0 0 0 0 0
0 0 0 0 0 0 0 0 0 1 3 6 8 10 14 21 27 27 27 28 28 25 18 12 10 8 6 4 3 2 2 1 0 0 0 0 0 0 0 0 0 0 0 0 0 0 0 0 0
0 0 0 0 0 0 0 0 0 0 2 5 7 8 11 17 21 20 19 21 21 19 14 8 8 9 8 6 4 3 2 1 0 0 0 0 0 0 0 0 0 0 0 0 0 0 0 0 0
0 0 0 0 0 0 0 0 0 0 1 3 6 6 7 11 13 13 13 14 13 11 9 5 4 6 8 7 5 4 2 1 0 0 0 0 1 1 0 0 0 0 0 0 0 0 0 0 0
0 0 0 0 0 0 0 0 0 0 0 1 3 4 5 7 8 10 10 10 8 7 4 3 2 3 4 6 6 4 3 1 0 0 0 0 1 1 0 0 0 0 0 0 0 0 0 0 0
0 0 0 0 0 0 0 0 0 0 0 0 1 2 4 5 7 8 8 8 7 6 3 2 1 1 1 4 6 4 2 1 0 0 0 0 1 1 0 0 0 0 0 0 0 0 0 0 0
0 0 0 0 0 0 0 0 0 0 0 0 1 3 5 4 4 5 5 6 7 6 4 3 2 1 1 3 4 3 1 1 0 0 0 0 0 0 0 0 0 0 0 0 0 0 0 0 0
0 0 0 0 0 0 0 0 0 0 0 0 1 4 5 4 2 2 3 4 6 6 4 4 3 3 3 2 2 1 0 0 0 0 0 0 0 0 0 0 0 0 0 0 0 0 0 0 0
0 0 0 0 0 0 0 0 0 0 0 0 0 2 5 4 2 2 2 3 3 3 2 3 3 4 4 3 1 0 0 0 0 0 0 0 0 0 0 0 0 0 0 0 0 0 0 0 0
0 0 0 0 0 0 0 0 0 0 0 0 0 2 5 5 4 3 3 2 1 1 1 2 3 4 4 4 2 1 0 0 0 0 0 0 0 0 0 0 0 0 0 0 0 0 0 0 0
0 0 0 0 0 0 0 0 0 0 0 0 0 2 5 6 5 4 3 2 1 1 1 1 2 4 5 4 3 2 1 0 0 0 0 0 0 0 0 0 0 0 0 0 0 0 0 0 0

GEFSSGP_con_probscp_138.txt.gz
Probability
0 0 1 2 1 0 0 0 0 0 0 0 0 0 0 0 0 0 0 0 0 0 0 0 0 0 0 2 5 5 3 1 0 0 0 0 0 0 0 0 0 0 0 0 0 0 0 0 0
0 0 1 2 1 0 0 0 0 0 0 0 0 0 0 0 1 1 1 0 0 0 0 0 0 0 1 2 4 4 2 1 0 0 0 0 0 0 0 0 0 0 0 0 0 0 0 0 0
0 0 1 1 0 0 0 0 0 0 0 0 0 0 0 0 1 2 2 1 0 0 0 0 0 0 1 1 2 2 1 0 0 0 0 0 0 0 0 0 0 0 0 0 0 0 0 0 0
0 0 1 0 0 0 0 0 0 0 0 0 0 0 0 0 1 2 2 1 0 0 0 0 0 1 1 0 0 0 0 0 0 0 0 0 0 0 0 0 0 0 0 0 0 0 0 0 0
0 0 0 0 0 0 0 0 0 0 0 0 0 0 1 1 2 3 2 1 0 0 0 0 0 1 2 1 0 0 0 0 0 0 0 0 0 0 0 0 0 0 0 0 0 0 0 0 0
0 0 0 0 0 0 0 0 0 0 0 0 0 2 5 6 7 5 3 1 0 0 0 0 0 1 1 1 0 0 0 0 0 0 0 0 0 0 0 0 0 0 0 0 0 0 0 0 0
0 0 0 0 0 0 0 0 0 0 0 0 1 4 10 15 14 10 4 1 0 0 0 0 0 0 0 0 0 0 0 0 0 0 0 0 0 0 0 0 0 0 0 0 0 0 0 0 0
0 0 0 0 0 0 0 0 0 0 0 0 1 5 17 29 29 20 11 5 3 2 1 0 0 0 0 0 0 0 0 0 0 0 0 0 0 0 0 0 0 0 0 0 0 0 0 0 0
0 0 0 0 0 0 0 0 0 0 0 0 2 9 28 48 50 40 29 20 14 10 6 5 3 2 1 0 1 1 1 0 0 0 0 0 0 0 0 0 0 0 0 0 0 0 0 0 0
0 0 0 0 0 0 0 0 0 0 0 2 6 20 44 62 66 60 50 38 31 24 17 14 11 7 4 2 3 3 2 1 0 0 0 0 0 0 0 0 0 0 0 0 0 0 0 0 0
0 0 0 0 0 0 0 0 0 0 1 4 13 31 54 69 71 69 61 50 41 35 30 25 20 13 8 6 5 5 4 2 1 1 0 0 0 0 0 0 0 0 0 0 0 0 0 0 0
0 0 0 0 0 0 0 0 0 1 2 6 17 36 56 67 67 65 62 56 49 44 39 35 29 23 17 12 8 6 5 4 4 4 2 0 0 0 0 0 0 0 0 0 0 0 0 0 0
0 0 0 0 0 0 0 0 1 2 3 7 17 32 45 54 58 61 63 62 57 50 44 41 38 33 27 21 15 10 7 6 7 5 2 0 0 0 0 0 0 0 0 0 0 0 0 0 0
0 0 0 0 0 0 0 0 1 2 3 6 12 22 30 37 48 60 66 66 61 52 43 40 40 38 33 28 23 15 9 8 8 6 2 0 0 0 0 0 0 0 0 0 0 0 0 0 0
0 0 0 0 0 0 0 0 0 1 1 3 7 14 21 27 41 59 67 66 59 49 40 35 34 34 32 29 25 17 11 9 8 6 2 0 0 0 0 0 0 0 0 0 0 0 0 0 0
0 0 0 0 0 0 0 0 0 0 0 2 5 11 19 25 38 54 61 60 54 46 40 34 30 29 29 27 23 15 10 9 8 5 3 2 1 1 0 0 0 0 0 0 0 0 0 0 0
0 0 0 0 0 0 0 0 0 0 0 1 5 12 18 25 37 49 54 53 50 44 40 36 31 29 28 26 21 14 9 8 7 5 4 3 2 1 0 0 0 0 0 0 0 0 0 0 0
0 0 0 0 0 0 0 0 0 0 0 0 4 10 17 24 36 46 47 46 46 42 39 38 35 32 29 24 19 13 9 7 6 6 5 5 3 2 1 1 0 0 0 0 0 0 0 0 0
0 0 0 0 0 0 0 0 0 1 1 0 3 9 16 24 32 40 42 42 42 42 40 39 37 33 29 24 17 12 10 8 6 6 6 6 4 3 3 1 0 0 0 0 0 0 0 0 0
0 0 0 0 0 0 0 0 0 1 2 2 4 10 16 24 32 38 39 39 39 39 38 37 35 32 27 22 17 14 11 9 7 6 6 6 5 5 4 2 1 0 0 0 0 0 0 0 0
0 0 0 0 0 0 0 0 0 1 1 3 8 12 15 21 28 34 37 39 36 32 29 29 28 26 23 20 18 15 12 10 7 6 6 7 6 6 5 4 1 0 0 0 0 0 0 0 0
0 0 0 0 0 0 0 0 0 0 1 4 10 12 12 14 18 26 33 37 35 25 19 20 20 19 18 18 17 13 10 9 6 5 7 8 7 6 6 5 3 2 0 0 0 0 0 0 0
0 0 0 0 0 0 0 0 0 0 0 4 8 9 10 11 14 19 27 32 30 20 13 14 14 14 14 14 14 12 9 8 6 5 6 8 9 8 6 6 6 4 2 1 1 2 1 1 0
0 0 0 0 0 0 0 0 0 0 0 2 5 7 9 13 15 17 21 25 25 18 13 12 11 10 9 10 11 11 10 9 7 6 5 6 9 9 7 6 7 7 5 3 2 3 2 1 1
0 0 0 0 0 0 0 0 0 0 0 1 3 5 8 13 16 16 16 18 19 17 14 12 10 7 6 6 8 10 11 10 8 7 5 5 6 8 8 7 7 7 6 4 3 3 3 2 1
0 0 0 0 0 0 0 0 0 0 0 1 2 4 7 11 13 12 12 12 12 11 10 9 8 7 6 6 6 9 9 9 7 7 6 6 6 7 7 8 7 6 5 4 4 3 2 1 1
0 0 0 0 0 0 0 0 0 0 0 1 1 3 6 9 10 9 9 9 8 6 5 6 7 8 8 8 7 7 7 6 6 6 6 7 7 7 7 7 6 6 6 6 6 4 3 1 1
0 0 0 0 0 0 0 0 0 0 0 0 1 3 5 6 7 7 7 8 7 5 5 6 8 9 10 8 6 5 5 5 5 5 5 6 6 7 7 7 7 8 9 9 8 6 4 3 2
0 0 0 0 0 0 0 0 0 0 0 0 1 3 5 5 5 6 5 5 6 5 6 7 8 9 9 7 5 4 4 4 3 3 3 5 6 6 5 7 9 10 10 10 9 8 7 6 5
0 0 0 0 0 0 0 0 0 0 0 0 2 5 6 5 5 5 4 4 4 5 6 7 7 7 7 6 5 5 4 3 3 3 2 4 7 7 5 6 9 10 9 8 9 9 8 7 6

GEFSSGP_con_probscp_144.txt.gz
Probability
0 4 11 17 16 7 1 0 0 0 0 0 0 0 0 0 0 0 1 3 3 1 0 0 0 0 0 0 0 0 0 0 0 0 0 0 0 0 0 0 0 0 0 0 0 0 0 0 0
1 4 10 13 11 4 0 0 0 0 0 0 0 0 0 0 0 0 1 3 3 1 0 0 0 0 0 0 0 0 0 0 0 0 0 0 0 0 0 0 0 0 0 0 0 0 0 0 0
2 4 6 8 5 1 0 0 0 0 0 0 0 0 0 0 0 0 1 3 3 1 1 0 0 1 0 0 0 0 0 0 0 0 0 0 0 0 0 0 0 0 0 0 0 0 0 0 0
3 3 3 3 1 0 0 0 0 0 0 0 1 1 1 1 1 2 2 3 3 3 2 1 0 0 0 0 0 0 0 0 0 0 0 0 0 0 0 0 0 0 0 0 0 0 0 0 0
3 3 2 1 0 0 0 0 0 0 0 0 2 5 3 2 3 2 2 3 4 4 3 1 0 0 0 0 0 0 0 0 0 0 0 0 0 0 0 0 0 0 0 0 0 0 0 0 0
3 3 2 1 0 0 0 0 0 0 0 1 5 8 5 3 3 2 1 3 5 6 5 2 1 1 1 1 1 1 0 0 0 0 0 0 0 0 0 0 0 0 0 0 0 0 0 0 0
3 2 1 0 0 0 0 0 0 0 0 1 6 10 10 10 7 3 3 4 8 12 10 4 2 1 1 2 2 2 1 0 0 0 0 0 0 0 0 0 0 0 0 0 0 0 0 0 0
2 1 0 0 0 0 0 0 0 0 0 1 5 11 17 19 14 8 6 9 16 20 15 7 3 2 1 1 2 2 1 0 0 0 0 0 0 0 0 0 0 0 0 0 0 0 0 0 0
1 0 0 0 0 0 0 0 0 0 1 2 7 16 25 27 21 15 14 19 27 30 23 13 8 5 2 1 2 2 1 0 0 0 0 0 0 0 0 0 0 0 0 0 0 0 0 0 0
0 0 0 0 0 0 0 0 0 1 2 5 13 24 33 34 30 26 26 32 39 40 31 23 19 12 6 6 5 3 2 1 0 0 0 0 0 0 0 0 0 0 0 0 0 0 0 0 0
0 0 0 0 0 0 0 0 0 1 2 7 18 30 38 40 39 38 40 46 51 50 42 37 33 25 17 14 10 6 4 2 0 0 0 0 0 0 0 0 0 0 0 0 0 0 0 0 0
0 0 0 0 0 0 0 0 0 0 3 9 19 32 41 42 41 44 50 57 61 58 53 51 49 41 32 26 17 11 8 5 4 3 2 1 0 0 0 0 0 0 0 0 0 0 0 0 0
0 0 0 0 0 0 0 0 0 1 4 10 18 28 39 43 44 49 59 67 68 64 62 64 63 54 44 37 27 19 14 10 9 8 5 2 1 1 0 0 0 0 0 0 0 0 0 0 0
0 0 0 0 0 0 0 0 1 3 5 10 16 25 34 43 53 61 70 76 75 70 69 72 71 62 52 44 35 26 19 14 12 10 7 4 3 3 1 0 0 0 0 0 0 0 0 0 0
0 0 0 0 0 0 0 0 2 4 5 7 13 22 35 49 64 75 80 83 81 76 75 74 71 64 58 51 40 28 20 15 14 13 9 5 6 7 4 1 0 1 0 0 0 0 0 0 0
0 0 0 0 0 0 0 1 4 4 2 4 9 22 41 60 73 80 85 87 85 82 79 74 68 64 60 54 43 29 20 18 20 19 14 9 9 11 8 3 2 3 2 1 1 0 0 0 0
0 0 0 0 0 0 0 2 3 2 1 3 9 24 47 65 76 82 85 87 86 83 80 73 67 61 56 50 42 29 22 22 22 20 16 12 11 11 9 5 4 4 2 1 1 1 0 0 0
0 0 0 0 0 0 0 1 1 1 1 5 14 30 50 66 77 84 85 85 83 81 77 71 65 59 51 45 38 28 23 23 19 16 14 14 12 11 8 5 5 5 3 1 1 2 1 0 1
0 0 0 0 0 0 0 0 0 1 2 6 19 36 52 66 79 84 84 82 81 77 73 68 64 58 50 43 37 30 26 24 18 13 13 13 11 10 7 6 6 8 7 4 3 3 1 1 2
0 0 0 0 0 0 0 0 1 1 2 7 21 38 52 65 78 82 82 80 78 75 70 64 61 57 48 40 35 32 29 25 19 15 15 12 10 10 8 7 8 10 10 8 6 5 3 2 2
0 0 0 0 0 0 0 1 2 3 3 7 18 33 46 60 73 79 78 74 71 70 65 58 56 53 45 38 32 28 26 22 17 16 17 15 11 10 10 10 10 11 10 8 7 7 5 4 4
0 0 0 0 0 0 0 1 4 4 3 6 13 24 37 52 67 76 74 65 60 59 55 50 51 48 40 36 31 25 21 18 15 17 18 15 11 9 11 13 14 12 9 7 7 7 6 6 5
0 0 0 0 0 0 0 1 4 5 4 5 10 19 31 45 60 71 70 59 52 49 45 42 43 39 32 30 30 25 19 15 15 15 14 12 10 9 11 15 17 15 12 9 8 8 7 6 6
0 0 0 0 0 0 0 0 2 3 4 6 11 20 30 40 54 66 64 53 44 40 38 35 34 30 25 23 23 20 16 14 13 12 11 11 11 10 11 15 18 17 13 12 13 11 8 7 7
0 0 0 0 0 0 0 0 1 3 4 8 15 24 31 38 49 57 54 46 39 35 33 30 28 25 20 17 16 13 12 13 12 11 11 11 11 11 12 16 20 18 14 15 17 16 11 9 9
0 0 0 0 0 0 0 1 2 4 6 10 17 26 33 39 44 44 42 39 34 32 31 28 24 20 16 13 12 11 11 12 13 11 11 11 11 13 17 22 25 23 19 17 20 20 16 13 13
0 0 0 0 0 0 0 2 4 6 10 12 16 23 31 36 37 35 33 31 27 27 30 29 24 20 15 11 10 11 11 11 12 11 10 11 12 15 21 25 27 27 24 22 24 23 20 19 19
0 0 0 0 0 0 1 3 6 10 13 12 13 19 28 32 32 31 29 26 23 24 28 29 26 21 15 10 9 10 10 11 11 9 9 12 15 17 20 23 25 27 26 25 25 23 21 21 22
0 0 0 0 0 0 1 3 7 12 14 12 12 19 29 33 33 31 28 24 24 25 27 28 26 23 17 13 11 9 9 10 9 8 10 14 16 15 16 18 21 23 24 24 23 19 18 20 23
0 0 0 0 0 0 1 3 7 11 14 12 13 21 30 36 36 32 26 24 24 25 27 27 27 25 21 17 12 9 9 10 10 9 10 14 16 13 12 14 17 19 21 22 21 16 15 18 21

GEFSSGP_con_probscp_150.txt.gz
Probability
0 0 0 0 0 0 0 0 0 0 0 0 0 0 0 0 0 0 0 0 1 0 0 0 0 0 0 0 0 0 0 0 0 0 0 0 0 0 0 0 0 0 0 0 0 0 0 0 0
0 0 0 0 0 0 0 0 0 0 0 0 0 0 0 0 1 1 0 1 1 1 0 1 1 1 0 0 0 0 0 0 0 0 0 0 0 0 0 0 0 0 0 0 0 0 0 0 0
0 0 0 0 0 0 0 0 0 0 1 0 0 0 0 1 2 2 2 3 3 1 1 3 4 3 1 0 0 0 0 0 0 0 0 0 0 0 0 0 0 0 0 0 0 0 0 0 0
1 1 1 0 1 0 0 0 1 2 2 1 1 0 0 2 5 5 3 5 6 3 2 5 6 5 2 0 0 0 0 0 0 0 0 0 0 0 0 0 0 0 0 0 0 0 0 0 0
1 1 1 0 0 0 0 1 4 6 6 4 2 1 1 6 11 8 4 6 8 7 5 6 7 6 3 1 1 0 0 0 0 0 0 0 0 0 0 0 0 0 0 0 0 0 0 0 0
0 0 0 0 0 0 0 3 8 11 11 7 3 1 2 9 13 9 4 5 8 9 7 6 6 7 6 4 2 0 0 0 0 0 0 0 0 0 0 0 0 0 0 0 0 0 0 0 0
1 0 0 0 0 0 0 4 9 11 10 8 4 2 4 10 12 8 5 5 7 9 9 7 5 5 7 6 2 0 0 0 0 0 0 0 0 0 0 0 0 0 0 0 0 0 0 0 0
1 0 0 0 0 0 0 3 7 8 7 6 6 6 9 17 22 16 10 9 9 10 11 8 4 3 4 4 2 0 1 0 0 0 0 0 0 0 0 0 0 0 0 0 0 0 0 0 0
1 0 0 0 0 0 0 2 3 6 7 7 7 10 18 31 39 35 26 20 16 15 12 8 4 3 3 3 1 0 0 0 0 0 0 0 0 0 0 0 0 0 0 0 0 0 0 0 0
0 0 0 0 0 0 1 1 1 5 10 12 13 18 27 42 51 51 44 34 26 21 14 7 4 4 4 3 1 0 0 0 0 0 0 0 0 0 0 0 0 0 0 0 0 0 0 0 0
0 0 0 0 0 0 1 0 0 4 10 16 20 25 31 43 53 58 56 44 31 23 15 8 6 5 5 4 2 1 0 0 0 0 0 0 0 0 0 0 0 0 0 0 0 0 0 0 0
0 0 0 0 0 0 1 1 1 4 10 16 21 24 29 37 47 56 59 52 37 24 14 10 9 7 5 5 3 1 0 0 0 0 0 0 0 0 0 0 0 0 0 0 0 0 0 0 0
0 0 0 0 1 1 2 2 3 6 12 18 20 21 25 32 39 48 55 54 43 28 18 14 13 10 7 5 2 1 0 0 0 0 0 0 0 0 0 0 0 0 0 0 0 0 0 0 0
0 0 0 0 1 2 3 4 7 11 18 23 23 22 24 30 37 44 51 54 47 37 29 24 20 16 11 5 1 0 0 0 0 0 0 0 0 0 0 0 0 0 0 0 0 0 0 0 0
0 0 0 0 1 1 2 6 11 16 23 26 27 26 27 33 40 45 50 55 53 48 42 36 29 24 17 8 3 1 1 0 0 0 0 0 0 0 0 0 0 0 0 0 0 0 0 0 0
0 0 0 0 0 0 2 6 12 17 23 27 30 33 35 40 46 50 54 59 60 57 51 43 36 28 20 13 7 3 1 0 0 1 1 0 0 0 0 0 0 0 0 0 0 0 0 0 0
0 0 0 0 0 0 1 5 11 17 22 28 34 39 44 49 55 58 63 65 64 61 55 47 41 32 23 16 10 4 1 0 0 1 2 1 1 1 1 0 0 0 0 0 0 0 0 0 0
0 0 0 0 0 0 1 5 11 18 26 35 43 48 50 55 60 64 67 66 62 58 55 51 46 38 28 19 12 5 1 0 0 1 2 2 2 3 2 1 0 0 0 0 0 0 0 0 0
0 0 0 0 0 0 2 4 10 19 30 43 53 55 55 56 59 63 65 63 58 54 52 51 48 41 30 21 13 7 2 0 0 0 1 2 3 4 4 3 1 0 0 0 0 0 0 0 0
0 0 0 0 0 1 2 4 8 18 30 43 55 59 59 58 57 59 61 59 56 52 49 47 44 37 28 20 12 6 1 0 0 0 0 1 2 3 3 3 2 1 0 0 0 0 0 0 0
0 0 0 0 0 1 2 2 6 15 27 38 48 54 58 61 59 56 55 54 51 49 44 40 35 29 23 16 10 5 2 1 1 0 0 0 1 1 2 2 1 1 0 0 0 0 0 0 0
0 0 0 0 0 0 1 1 3 11 23 31 37 44 52 60 61 58 53 48 45 42 36 30 26 23 19 14 9 6 4 3 2 1 0 0 0 0 0 0 0 0 0 0 0 0 0 0 0
0 0 0 0 0 0 0 0 1 7 16 24 29 38 47 56 61 58 51 43 39 35 30 24 21 20 17 13 9 6 4 4 3 2 1 0 0 0 0 0 0 0 0 0 0 0 0 0 0
0 0 0 0 0 0 0 0 0 3 10 19 28 38 47 54 58 55 46 38 33 30 26 21 17 16 14 12 8 5 4 3 3 3 2 0 0 0 0 0 0 0 0 0 0 0 0 0 0
0 0 0 0 0 0 0 0 0 2 8 21 33 42 48 52 53 49 42 35 30 27 23 18 14 12 10 8 6 4 3 2 2 2 1 0 0 0 0 0 0 0 0 0 0 0 0 0 0
0 0 0 0 0 0 0 0 1 4 12 26 39 46 48 47 46 41 36 33 30 26 22 17 12 8 5 4 3 3 1 1 1 1 0 0 0 0 0 0 0 0 0 0 0 0 0 0 0
0 0 0 0 0 0 0 0 3 9 18 28 39 46 44 40 36 32 30 30 29 25 20 15 10 5 2 1 1 1 0 0 0 0 0 0 0 0 0 0 0 0 1 1 1 1 0 0 0
0 0 0 0 0 0 0 0 4 11 19 26 33 39 39 35 29 25 24 25 25 21 16 11 7 2 0 0 0 0 0 1 1 1 0 0 0 0 0 0 1 1 2 2 2 1 0 0 0
0 0 0 0 0 0 0 0 3 10 17 23 27 33 37 34 27 22 19 18 17 16 13 9 5 1 0 0 0 0 1 2 3 2 1 0 1 1 1 1 2 2 3 3 3 2 1 1 1
0 0 0 0 0 0 0 0 3 10 17 21 25 31 36 34 27 22 18 14 13 13 12 8 5 2 1 0 0 1 2 3 4 3 1 1 2 2 2 1 2 3 2 3 3 3 3 2 2

GEFSSGP_con_probscp_156.txt.gz
Probability
0 0 0 0 0 0 0 0 0 0 0 0 1 2 2 1 0 0 0 0 0 0 0 0 0 0 0 0 0 0 0 0 0 0 0 0 0 0 0 0 0 0 0 0 0 0 0 0 0
0 0 0 0 0 0 0 0 0 0 0 0 1 2 2 1 0 0 0 0 0 0 0 0 0 0 0 0 0 0 0 0 0 0 0 0 0 0 0 0 0 0 0 0 0 0 0 0 0
0 0 0 0 0 0 0 0 0 0 0 0 1 1 1 0 0 0 0 1 1 0 0 0 2 2 1 1 0 0 0 0 0 0 0 0 0 0 0 0 0 0 0 0 0 0 0 0 0
0 0 0 0 0 0 0 0 0 0 0 1 1 1 0 0 0 0 2 4 4 2 1 2 4 5 3 1 0 0 0 0 0 0 0 0 0 0 0 0 0 0 0 0 0 0 0 0 0
0 0 0 0 0 0 0 0 0 0 1 1 2 2 1 0 0 2 5 7 7 5 4 4 6 5 3 2 0 0 0 0 0 0 0 0 0 0 0 0 0 0 0 0 0 0 0 0 0
0 0 0 0 0 0 0 0 1 1 1 1 2 2 1 0 1 4 6 8 7 7 7 6 4 4 3 2 1 0 0 0 0 0 0 0 0 0 0 0 0 0 0 0 0 0 0 0 0
0 0 0 0 0 0 0 0 1 2 2 1 2 3 2 2 3 6 7 8 8 7 7 5 2 2 3 3 1 0 0 0 0 0 0 0 0 0 0 0 0 0 0 0 0 0 0 0 0
0 0 0 0 0 0 0 0 1 2 3 2 1 3 5 7 10 11 12 11 10 9 7 4 2 2 2 2 1 0 0 0 0 0 0 0 0 0 0 0 0 0 0 0 0 0 0 0 0
0 0 0 0 0 0 0 0 0 2 3 2 2 6 14 22 24 22 19 16 14 13 10 6 4 3 2 2 1 0 0 0 0 0 0 0 0 0 0 0 0 0 0 0 0 0 0 0 0
0 0 0 0 0 0 0 0 1 1 2 3 6 16 31 40 36 28 22 18 16 15 12 9 6 4 3 2 1 0 0 0 0 0 0 0 0 0 0 0 0 0 0 0 0 0 0 0 0
0 0 0 0 0 0 0 1 2 2 2 3 13 31 47 47 36 24 18 16 15 13 12 10 7 5 3 1 0 0 0 0 0 0 0 0 0 0 0 0 0 0 0 0 0 0 0 0 0
0 0 0 0 0 0 0 1 3 3 2 4 17 39 51 45 30 17 11 11 11 11 10 9 8 7 4 1 0 0 0 0 0 0 0 0 0 0 0 0 0 0 0 0 0 0 0 0 0
0 0 0 0 0 0 1 2 3 3 4 6 17 35 42 38 27 16 10 8 8 10 9 8 8 7 5 3 1 0 0 0 0 0 0 0 0 0 0 0 0 0 0 0 0 0 0 0 0
0 0 0 0 0 1 3 3 3 4 6 8 15 25 29 28 25 21 17 11 7 7 9 9 9 8 7 5 3 1 0 0 0 0 0 0 0 0 0 0 0 0 0 0 0 0 0 0 0
0 0 0 0 0 1 2 3 3 4 7 10 12 15 18 20 22 26 26 17 8 6 7 9 10 10 8 6 3 1 0 0 0 0 0 0 0 0 0 0 0 0 0 0 0 0 0 0 0
0 0 0 0 0 0 1 1 2 4 7 10 10 12 15 16 18 25 28 21 12 8 6 7 9 8 7 5 3 1 0 0 0 0 0 0 0 0 0 0 0 0 0 0 0 0 0 0 0
0 0 0 0 0 0 0 0 1 3 7 9 12 15 16 15 14 18 25 25 19 13 9 7 7 6 4 4 2 1 0 0 0 0 0 0 0 0 0 0 0 0 0 0 0 0 0 0 0
0 0 0 0 0 0 0 0 1 3 6 10 14 17 17 13 11 12 20 25 24 19 14 11 8 5 3 3 2 1 0 0 0 0 0 0 0 0 0 0 0 0 0 0 0 0 0 0 0
0 0 0 0 0 0 0 0 1 3 6 9 12 14 14 13 11 13 19 24 24 22 19 14 9 5 3 2 2 1 0 0 0 0 0 0 0 0 0 0 0 0 0 0 0 0 0 0 0
0 0 0 0 0 0 0 0 1 2 5 7 10 12 14 16 17 20 24 24 24 23 22 18 12 7 4 3 2 1 0 0 0 0 0 0 0 0 0 1 0 0 0 0 0 0 0 0 0
0 0 0 0 0 0 0 0 0 2 4 7 10 13 16 19 25 29 30 27 24 22 22 20 15 9 5 3 2 1 0 0 0 0 0 0 0 0 0 0 0 0 0 0 0 0 0 0 0
0 0 0 0 0 0 0 0 1 2 4 7 11 15 17 21 28 33 33 30 26 23 21 20 15 8 4 3 3 2 1 1 0 0 0 0 0 0 0 0 0 0 0 0 0 0 0 0 0
0 0 0 0 0 0 0 0 1 1 2 5 11 17 19 21 28 33 32 28 24 20 18 17 12 6 4 3 3 2 2 2 1 0 0 0 0 0 0 0 0 0 0 0 0 0 0 0 0
0 0 0 0 0 0 0 0 0 0 0 3 11 19 21 22 28 32 28 22 18 14 12 12 9 5 4 3 2 1 2 2 1 0 0 0 0 0 0 0 0 0 0 0 0 0 0 0 0
0 0 0 0 0 0 0 0 0 0 0 2 10 18 21 21 26 29 24 16 12 10 10 9 7 5 4 2 1 0 1 1 0 0 0 0 0 0 0 0 0 0 0 0 0 0 0 0 0
0 0 0 0 0 0 0 0 0 0 0 2 9 17 18 18 21 23 19 14 10 9 10 10 8 5 3 2 1 0 0 0 0 0 0 0 0 0 0 0 0 0 0 0 0 0 0 0 0
0 0 0 0 0 0 0 0 0 0 0 4 11 17 17 15 15 17 17 14 11 10 10 10 8 4 3 3 1 0 0 0 0 0 0 0 0 0 0 0 0 0 0 0 0 0 0 0 0
0 0 0 0 0 0 0 0 0 0 1 7 13 16 16 13 11 13 16 15 11 9 8 8 6 4 3 3 2 0 0 0 0 0 0 0 0 0 0 0 0 0 0 0 0 0 0 0 0
0 0 0 0 0 0 0 0 0 0 2 7 12 14 14 12 11 12 14 15 13 9 7 5 4 3 2 2 1 0 0 0 1 1 0 0 0 0 0 0 0 0 0 0 0 0 0 0 0
0 0 0 0 0 0 0 0 0 0 2 7 10 11 12 12 13 13 13 14 14 10 6 4 3 2 1 1 0 0 0 1 2 2 1 0 0 0 0 0 0 0 0 0 0 0 0 0 0

GEFSSGP_con_probscp_162.txt.gz
Probability
1 1 1 2 1 0 0 0 0 0 0 0 0 0 0 0 0 0 0 0 0 0 0 0 0 0 0 0 1 1 1 0 0 0 0 0 0 0 0 0 0 0 0 0 0 0 0 0 0
1 0 0 1 0 0 0 0 0 0 0 0 0 0 0 0 0 0 0 0 0 0 0 0 0 0 0 0 0 0 0 0 0 0 0 0 0 0 0 0 0 0 0 0 0 0 0 0 0
0 0 0 0 0 0 0 0 0 0 0 0 0 0 0 0 0 0 0 0 0 0 0 0 0 0 0 0 0 0 0 0 0 0 0 0 0 0 0 0 0 0 0 0 0 0 0 0 0
1 1 0 0 0 0 0 0 0 0 0 0 0 0 0 0 0 0 0 0 0 0 0 0 1 0 0 0 0 0 0 0 0 0 0 0 0 0 0 0 0 0 0 0 0 0 0 0 0
1 1 0 0 0 0 0 0 0 0 0 0 0 1 2 1 0 0 0 0 0 0 0 1 1 0 0 0 0 0 0 0 0 0 0 0 0 0 0 0 0 0 0 0 0 0 0 0 0
1 0 0 0 0 0 0 0 0 0 0 0 0 1 2 2 1 0 0 0 0 0 0 1 0 0 0 0 0 0 0 0 0 0 0 0 0 0 0 0 0 0 0 0 0 0 0 0 0
0 0 0 0 0 0 0 0 0 0 0 0 0 1 4 5 3 0 0 0 0 0 0 0 0 0 0 0 0 0 0 0 0 0 0 0 0 0 0 0 0 0 0 0 0 0 0 0 0
0 0 0 0 0 0 0 0 0 0 0 0 0 1 8 14 10 3 1 0 1 1 1 1 0 0 0 0 0 0 0 0 0 0 0 0 0 0 0 0 0 0 0 0 0 0 0 0 0
0 0 0 0 0 0 0 0 0 1 1 1 1 4 17 29 24 11 6 3 2 3 3 2 1 0 0 0 0 0 0 0 1 0 0 0 0 0 0 0 0 0 0 0 0 0 0 0 0
0 0 0 0 0 0 0 0 0 1 2 3 6 13 29 42 35 20 13 10 7 6 5 3 2 1 0 0 0 0 0 0 0 0 0 0 0 0 0 0 0 0 0 0 0 0 0 0 0
0 0 0 0 0 0 0 0 0 0 1 4 12 28 42 46 36 22 15 13 11 9 7 5 3 2 1 0 0 0 0 0 0 0 0 0 0 0 0 0 0 0 0 0 0 0 0 0 0
0 0 0 0 0 0 0 0 1 1 1 3 15 35 47 44 33 20 12 12 12 11 9 7 5 4 2 1 0 0 0 0 0 0 0 0 0 0 0 0 0 0 0 0 0 0 0 0 0
0 0 0 0 0 0 0 1 2 2 1 3 12 28 37 36 29 20 12 11 13 14 12 9 9 9 6 3 0 0 0 0 0 0 0 0 0 0 0 0 0 0 0 0 0 0 0 0 0
0 0 0 0 0 0 0 2 2 2 2 4 8 15 21 24 24 21 16 14 16 16 16 15 15 15 12 6 1 0 0 0 0 0 0 0 0 0 0 0 0 0 0 0 0 0 0 0 0
0 0 0 0 0 0 0 1 2 1 1 4 7 10 14 17 18 19 18 16 17 17 17 18 19 20 18 9 2 0 0 0 0 0 0 0 0 0 0 0 0 0 0 0 0 0 0 0 0
0 0 0 0 0 0 0 1 1 1 0 3 7 12 17 19 16 15 15 15 16 17 17 16 17 20 19 10 3 1 1 0 0 0 0 0 0 0 0 0 0 0 0 0 0 0 0 0 0
0 0 0 0 0 0 0 0 0 0 0 2 6 11 19 23 20 15 14 14 16 18 18 15 16 18 16 9 5 3 2 1 0 0 0 0 0 0 0 0 0 0 0 0 0 0 0 0 0
0 0 0 0 0 0 0 0 0 0 0 1 4 9 17 23 22 18 16 15 16 19 19 16 16 16 13 9 6 4 3 2 1 0 1 1 1 0 0 0 0 0 0 0 0 0 0 0 0
0 0 0 0 0 0 0 0 0 0 0 0 2 7 14 21 23 21 18 17 18 19 20 18 17 16 13 9 7 5 4 3 1 1 3 3 2 1 0 0 0 0 0 0 0 0 0 0 0
0 0 0 0 0 0 0 0 0 0 0 0 1 6 12 18 21 22 23 24 23 22 21 20 19 17 14 11 9 6 4 3 1 2 5 6 3 2 1 0 0 0 0 0 0 0 0 0 1
0 0 0 0 0 0 0 0 0 0 0 0 1 4 9 15 19 23 28 31 29 25 21 19 20 18 16 14 11 8 5 3 2 3 7 7 5 3 1 0 0 0 0 0 0 0 0 1 2
0 0 0 0 0 0 0 0 1 0 0 1 2 3 7 12 18 24 30 33 30 23 18 17 17 17 17 16 14 10 7 4 3 3 5 6 5 2 1 1 1 1 1 0 0 0 0 1 2
0 0 0 0 0 0 0 0 0 0 0 1 2 3 6 12 18 24 30 33 27 18 15 14 15 16 16 16 15 12 9 6 5 5 5 6 6 3 1 2 2 2 2 1 0 0 0 1 2
0 0 0 0 0 0 0 0 0 0 0 0 1 3 6 12 18 23 29 29 22 15 12 12 13 15 16 16 14 13 11 9 8 6 5 6 7 4 2 1 2 3 3 1 1 1 0 0 1
0 0 0 0 0 0 0 0 0 0 0 0 1 3 7 13 18 21 24 23 18 13 11 11 12 13 14 14 13 12 12 10 8 4 3 4 6 5 2 0 1 3 3 2 3 2 1 1 1
0 0 0 0 0 0 0 0 0 0 0 0 1 3 8 14 17 17 17 16 14 12 11 12 13 13 12 11 10 10 10 8 5 2 1 3 5 4 1 0 0 1 2 3 4 2 1 1 2
0 0 0 0 0 0 0 0 0 0 0 0 1 4 9 15 17 15 11 10 11 13 13 13 14 13 9 6 6 7 6 5 2 1 1 4 6 5 3 1 0 1 2 4 4 3 2 2 2
0 0 0 0 0 0 0 0 0 0 0 0 1 4 11 18 21 17 11 9 11 14 15 14 12 10 7 5 5 4 3 2 1 1 2 5 5 5 4 2 1 1 3 5 5 4 3 3 3
0 0 0 0 0 0 0 0 0 0 0 1 2 7 14 21 24 22 16 13 14 16 17 15 11 7 5 5 5 4 1 0 0 1 3 3 3 2 2 2 2 1 1 4 5 5 3 3 3
0 0 0 0 0 0 0 0 0 0 1 2 4 9 16 21 25 25 21 18 17 18 18 17 12 7 5 5 6 4 1 0 1 2 3 2 1 0 1 2 2 1 0 3 5 4 1 2 4

GEFSSGP_con_probscp_168.txt.gz
Probability
7 13 27 34 22 5 0 0 0 0 0 0 0 0 0 0 0 0 0 0 0 0 0 0 0 0 0 0 0 0 0 0 0 0 0 0 0 0 0 0 0 0 0 0 0 0 0 0 0
5 11 22 24 13 3 0 0 0 0 0 0 0 0 0 0 0 0 0 0 1 1 1 0 0 0 0 0 0 0 0 0 0 0 0 0 0 0 0 0 0 0 0 0 0 0 0 0 0
4 9 14 12 4 0 0 0 0 0 0 0 0 0 0 0 0 0 0 1 2 2 1 0 0 0 0 0 0 0 0 0 0 0 0 0 0 0 0 0 0 0 0 0 0 0 0 0 0
4 8 9 5 1 0 0 0 0 0 0 0 0 0 0 0 0 0 0 1 2 2 1 0 0 0 0 0 0 0 0 0 0 0 0 0 0 0 0 0 0 0 0 0 0 0 0 0 0
5 6 4 2 0 0 0 0 0 0 0 0 0 1 1 0 0 0 0 1 3 3 1 0 0 1 1 1 1 1 0 0 0 0 0 0 0 0 0 0 0 0 0 0 0 0 0 0 0
4 3 1 0 0 0 0 0 0 0 0 0 1 2 2 1 0 0 1 2 5 7 4 1 1 2 2 2 2 2 1 0 0 0 0 0 0 0 0 0 0 0 0 0 0 0 0 0 0
3 2 1 0 0 0 0 0 0 0 0 0 1 3 4 3 1 0 1 3 7 10 8 3 2 3 3 3 3 3 2 1 0 0 0 0 0 0 0 0 0 0 0 0 0 0 0 0 0
2 1 0 0 0 0 0 0 0 0 0 0 2 7 10 8 3 1 1 2 6 10 10 8 6 4 3 3 3 3 2 1 0 0 0 0 0 0 0 0 0 0 0 0 0 0 0 0 0
1 0 0 0 0 0 0 0 0 0 1 2 5 13 17 13 6 3 2 2 5 8 10 10 8 5 3 3 2 2 1 0 0 0 0 0 0 0 0 0 0 0 0 0 0 0 0 0 0
0 0 0 0 0 0 0 0 1 1 3 6 12 20 22 17 11 8 7 7 9 9 10 12 10 5 2 3 3 2 1 0 0 0 0 0 0 0 0 0 0 0 0 0 0 0 0 0 0
0 0 0 0 0 0 0 0 1 2 4 11 21 27 26 21 16 13 15 18 17 14 13 15 14 7 2 2 2 2 2 1 0 0 0 0 0 0 0 0 0 0 0 0 0 0 0 0 0
0 0 0 0 0 0 0 0 0 1 5 14 25 30 29 25 19 17 21 27 27 22 19 20 20 12 5 2 2 2 3 2 1 0 0 0 0 0 0 0 0 0 0 0 0 0 0 0 0
0 0 0 0 0 0 0 0 1 2 6 16 26 30 30 27 25 24 29 38 39 32 28 30 27 19 11 6 3 3 5 5 3 1 0 0 0 0 0 0 0 0 0 1 0 0 0 0 0
0 0 0 0 0 0 0 1 3 6 8 15 24 29 31 33 35 38 44 51 49 43 41 42 36 25 17 11 6 4 4 6 4 2 2 2 1 1 1 0 0 0 0 0 0 0 0 0 0
0 0 0 0 0 0 0 1 4 8 10 14 22 29 35 41 45 50 56 58 55 54 54 50 41 30 22 15 10 5 3 3 4 5 6 5 3 3 2 1 0 0 0 0 0 0 0 0 0
0 0 0 0 0 0 0 0 3 6 9 12 20 32 43 48 50 56 62 62 63 65 63 54 43 36 29 21 13 8 4 4 6 8 9 8 5 3 3 1 0 0 0 0 0 0 0 0 0
0 0 0 0 0 0 0 0 1 3 7 10 17 34 51 57 58 64 68 68 70 72 68 57 48 44 38 27 18 11 8 8 8 9 11 11 7 4 2 1 0 1 1 1 0 1 1 0 0
0 0 0 0 0 0 0 1 1 2 5 9 17 35 56 65 68 73 75 74 74 74 71 63 56 52 46 35 24 15 11 9 8 10 12 12 10 6 3 1 1 2 3 2 1 2 2 1 0
0 0 0 0 0 0 0 1 1 1 5 12 21 37 57 68 73 78 80 77 75 75 73 66 60 57 52 43 32 22 14 10 8 10 13 12 11 9 5 2 3 5 3 2 2 3 3 1 1
0 0 0 0 0 0 0 1 2 3 7 13 23 37 55 68 75 79 80 78 77 78 75 68 62 60 56 48 37 27 20 14 12 13 14 14 13 11 7 4 4 5 3 2 4 6 4 2 2
0 0 0 0 0 0 0 2 4 6 8 12 19 31 48 62 72 77 78 77 77 79 77 71 67 64 59 52 40 32 26 20 16 15 17 18 17 13 8 5 4 3 2 2 4 6 5 4 4
0 0 0 0 0 0 0 2 6 9 9 10 15 24 39 55 68 75 76 74 73 74 74 74 71 64 59 54 43 34 27 21 18 17 19 20 19 14 10 7 6 4 3 3 3 4 5 4 4
0 0 0 0 0 0 0 2 6 8 9 11 16 23 35 51 64 73 74 71 68 67 67 69 68 60 55 50 42 33 25 20 17 16 18 20 18 14 12 10 9 7 5 4 4 5 6 5 4
0 0 0 0 0 0 0 1 3 5 8 13 19 24 33 47 60 69 72 69 66 62 59 59 60 56 49 42 36 31 25 19 16 14 15 16 14 12 10 10 9 8 7 6 7 8 7 5 3
0 0 0 0 0 0 0 0 1 3 8 13 19 24 32 43 55 65 69 68 65 59 55 54 54 51 47 39 34 31 26 20 16 14 13 12 10 8 7 8 9 8 7 7 8 8 8 6 5
0 0 0 0 0 0 0 0 1 4 7 10 15 23 31 41 51 60 64 65 63 58 54 53 51 49 45 38 32 30 26 20 16 16 14 11 8 5 5 7 9 9 6 6 6 7 6 7 10
0 0 0 0 0 0 0 0 2 4 4 6 12 22 31 39 48 54 58 58 58 58 57 56 52 46 40 34 30 28 25 19 16 17 15 12 9 6 6 8 9 8 7 6 5 5 5 8 13
0 0 0 0 0 0 0 0 1 2 2 5 13 23 32 39 46 52 54 54 56 59 62 59 53 45 38 33 29 25 22 19 17 16 15 13 11 9 8 8 8 7 7 7 7 6 5 8 11
0 0 0 0 0 0 0 0 0 1 2 6 15 27 35 41 48 54 58 59 59 61 64 61 53 46 40 35 30 26 23 20 17 15 14 13 10 8 8 7 6 6 7 9 9 8 7 7 8
0 0 0 0 0 0 0 0 0 1 3 7 17 31 39 43 50 57 62 64 63 61 63 61 54 47 41 36 31 27 25 21 16 14 13 13 10 7 7 6 5 5 7 8 10 9 8 8 8

GEFSSGP_con_probscp_174.txt.gz
Probability
3 1 0 0 0 0 0 0 0 0 0 0 0 0 0 0 0 0 0 0 0 0 0 0 0 0 0 0 0 0 0 0 0 0 0 0 0 0 0 0 0 0 0 0 0 0 0 0 0
1 1 0 0 0 0 0 0 0 0 0 0 0 0 0 0 0 0 0 0 0 0 0 0 0 0 0 0 0 0 0 0 0 0 0 0 0 0 0 0 0 0 0 0 0 0 0 0 0
1 1 1 1 0 0 0 0 0 0 0 0 0 0 0 0 0 0 0 0 0 0 0 0 0 0 0 0 0 0 0 0 0 0 0 0 0 0 0 0 0 0 0 0 0 0 0 0 0
2 2 1 1 0 0 0 0 0 0 0 0 0 0 0 0 1 1 0 0 0 0 0 0 0 0 0 0 0 0 0 0 0 0 0 0 0 0 0 0 0 0 0 0 0 0 0 0 0
2 2 1 0 0 0 0 1 1 1 0 0 0 0 1 3 5 3 2 2 2 1 0 0 0 0 0 0 0 0 0 0 0 0 0 0 0 0 0 0 0 0 0 0 0 0 0 0 0
1 1 0 0 0 0 0 1 2 2 1 0 0 0 3 8 10 6 4 5 4 2 1 0 0 0 0 0 0 0 0 0 0 0 0 0 0 0 0 0 0 0 0 0 0 0 0 0 0
0 0 0 0 0 0 0 1 1 2 1 1 1 0 5 12 14 10 8 8 6 4 3 1 0 0 1 0 0 0 0 0 0 0 0 0 0 0 0 0 0 0 0 0 0 0 0 0 0
0 0 0 0 0 0 0 0 1 2 2 2 2 2 6 16 22 19 15 12 8 5 4 2 1 0 0 0 0 0 0 0 0 0 0 0 0 0 0 0 0 0 0 0 0 0 0 0 0
0 0 0 0 0 0 0 0 0 1 2 2 2 4 10 24 37 36 28 20 14 8 4 2 1 0 0 0 0 0 0 0 0 0 0 0 0 0 0 0 0 0 0 0 0 0 0 0 0
0 0 0 0 0 0 0 0 0 0 1 2 4 7 16 32 47 51 44 35 24 13 5 2 1 0 0 0 0 0 0 0 0 0 0 0 0 0 0 0 0 0 0 0 0 0 0 0 0
0 0 0 0 0 0 0 0 0 0 2 5 8 12 19 31 45 52 52 45 32 18 7 2 2 1 0 0 0 0 0 0 0 0 0 0 0 0 0 0 0 0 0 0 0 0 0 0 0
0 0 0 0 0 0 0 0 0 0 4 9 12 14 19 26 35 43 48 46 37 24 11 5 4 3 1 1 1 1 1 1 0 0 0 0 0 0 0 0 0 0 0 0 0 0 0 0 0
0 0 0 0 0 1 2 2 1 3 9 15 16 14 17 22 27 36 45 48 43 33 21 12 7 5 3 2 2 2 2 1 0 0 0 0 0 0 0 0 0 0 0 0 0 0 0 0 0
0 0 0 0 1 3 6 5 4 8 18 23 18 14 15 21 27 37 47 52 50 43 34 24 15 9 7 5 5 4 3 1 0 0 0 0 0 0 0 0 0 0 0 0 0 0 0 0 0
0 0 0 0 1 4 7 8 8 14 24 25 18 16 19 24 31 40 49 54 54 50 44 36 27 20 14 11 9 8 5 2 0 0 0 0 0 0 0 0 0 0 0 0 0 0 0 0 0
0 0 0 0 1 3 6 7 10 18 26 25 21 22 27 31 35 41 49 56 58 54 49 42 36 29 21 14 11 9 6 2 0 0 0 0 0 0 0 0 0 0 0 0 0 0 0 0 0
0 0 0 0 0 1 3 5 8 19 29 30 27 29 35 40 42 46 53 61 62 57 50 43 38 32 23 15 10 6 4 2 1 1 0 0 0 0 0 0 0 0 0 0 0 0 0 0 0
0 0 0 0 0 1 2 3 8 18 29 34 35 37 41 46 51 56 62 66 65 59 51 44 39 33 23 15 10 6 4 3 2 1 0 0 0 0 0 0 0 0 0 0 0 0 0 0 0
0 0 0 0 0 1 2 3 8 17 28 36 42 46 48 51 57 63 69 71 68 61 54 47 42 35 25 16 11 8 5 3 2 1 0 0 0 0 0 0 0 0 0 0 0 0 0 0 0
0 0 0 0 1 1 1 2 7 16 25 35 46 52 55 58 60 64 70 73 70 62 55 51 46 38 26 16 10 7 5 3 2 1 0 0 0 0 0 0 0 0 0 0 0 0 0 0 0
0 0 0 0 1 1 0 1 5 13 21 32 44 55 61 64 63 64 68 70 68 62 54 49 45 37 27 17 10 7 5 3 2 0 0 0 1 1 1 0 0 0 0 0 0 0 0 0 0
0 0 0 0 0 0 0 1 3 9 17 26 39 52 62 64 62 63 65 67 66 61 53 45 39 32 25 18 10 6 4 2 1 0 0 0 1 1 1 0 0 0 0 0 0 0 0 0 0
0 0 0 0 0 0 0 0 2 5 11 22 36 49 57 60 59 59 62 64 63 59 52 44 34 25 21 17 11 6 3 1 1 0 1 1 1 1 0 0 0 0 0 0 0 0 0 0 0
0 0 0 0 0 0 0 0 1 2 8 19 34 47 53 56 55 55 57 60 58 56 51 43 31 21 16 14 10 5 2 1 0 0 1 2 2 1 0 0 0 0 0 0 0 0 0 0 0
0 0 0 0 0 0 0 0 1 2 6 16 31 45 52 54 52 51 54 56 55 54 51 43 31 21 15 13 9 4 2 1 0 0 1 2 2 1 0 1 1 0 0 0 0 0 0 0 0
0 0 0 0 0 0 0 0 1 3 7 16 29 43 52 53 50 50 51 52 52 51 48 42 32 23 18 14 10 5 2 1 0 0 0 1 1 1 1 2 2 1 1 0 0 0 0 0 0
0 0 0 0 0 0 0 0 1 4 10 18 29 43 50 50 49 48 46 44 44 44 42 38 31 26 22 17 12 7 4 1 0 1 1 1 1 1 1 2 3 2 1 1 1 1 1 0 0
0 0 0 0 0 0 0 0 1 5 12 21 32 43 48 49 48 45 38 35 36 38 38 34 30 26 22 18 14 10 5 2 2 2 3 3 3 2 1 1 2 2 1 1 2 2 1 0 0
0 0 0 0 0 0 0 0 0 4 12 22 33 43 49 49 46 41 35 32 35 37 36 33 29 25 22 19 16 12 6 3 3 5 6 5 4 1 0 1 2 3 2 2 2 2 1 0 1
0 0 0 0 0 0 0 0 0 3 12 24 34 44 50 49 44 39 36 35 37 37 34 31 28 23 22 21 18 12 7 4 4 7 8 7 4 1 1 2 3 3 3 2 1 1 0 1 1